NEWPRT Weather Reports


Display with metric or nautical units.
time (UTC)temp
F
wind
direction
speed
MPH
gust
MPH
rain 1hr
in
rain 24hr
in
rain mn
in
humidity
%
barometer
mb
20260510020831 0 100 7.0 15.0 0.00 0.00 0.00 74 1017.0
20260510020308 0 79 6.0 15.0 0.00 0.00 0.00 70 1017.0
20260510015745 0 100 7.0 12.0 0.00 0.00 0.00 66 1017.1
20260510015222 0 107 6.0 12.0 0.00 0.00 0.00 66 1017.2
20260510014659 0 92 7.0 12.0 0.00 0.00 0.00 67 1017.2
20260510014136 0 88 7.0 16.0 0.00 0.00 0.00 58 1017.1
20260510013613 0 92 7.0 16.0 0.00 0.00 0.00 58 1017.3
20260510013052 0 71 6.0 16.0 0.00 0.00 0.00 59 1017.3
20260510012528 0 84 7.0 13.0 0.00 0.00 0.00 56 1017.4
20260510012005 0 91 6.0 13.0 0.00 0.00 0.00 56 1017.5
20260510011441 0 106 7.0 13.0 0.00 0.00 0.00 58 1017.5
20260510010918 0 78 7.0 13.0 0.00 0.00 0.00 57 1017.8
20260510010355 0 67 8.0 13.0 0.00 0.00 0.00 59 1017.6
20260510005832 0 98 7.0 15.0 0.00 0.00 0.00 59 1017.6
20260510005309 0 82 8.0 15.0 0.00 0.00 0.00 57 1017.5
20260510004747 0 79 7.0 14.0 0.00 0.00 0.00 55 1017.6
20260510004223 0 92 7.0 14.0 0.00 0.00 0.00 54 1017.4
20260510003700 0 72 6.0 15.0 0.00 0.00 0.00 53 1017.5
20260510003137 0 133 6.0 15.0 0.00 0.00 0.00 53 1017.5
20260510002614 0 102 8.0 15.0 0.00 0.00 0.00 53 1017.4
20260510002051 0 79 6.0 15.0 0.00 0.00 0.00 51 1017.5
20260510001529 0 102 7.0 15.0 0.00 0.00 0.00 51 1017.6
20260510001005 0 98 5.0 15.0 0.00 0.00 0.00 51 1017.9
20260510000442 0 102 4.0 12.0 0.00 0.00 0.00 51 1017.8
20260509235919 0 67 6.0 12.0 0.00 0.00 0.00 52 1017.9
20260509235356 0 89 7.0 11.0 0.00 0.00 0.00 54 1017.8
20260509234833 0 120 6.0 11.0 0.00 0.00 0.00 56 1017.9
20260509234310 0 92 6.0 12.0 0.00 0.00 0.00 56 1018.0
20260509233747 0 74 6.0 12.0 0.00 0.00 0.00 53 1018.0
20260509233224 0 78 4.0 12.0 0.00 0.00 0.00 51 1018.0
20260509232701 0 78 7.0 14.0 0.00 0.00 0.00 47 1017.9
20260509232138 0 95 6.0 14.0 0.00 0.00 0.00 41 1018.1
20260509231616 0 100 5.0 15.0 0.00 0.00 0.00 50 1018.1
20260509231052 0 88 6.0 15.0 0.00 0.00 0.00 47 1018.1
20260509230529 0 81 6.0 15.0 0.00 0.00 0.00 48 1018.2
20260509230006 0 102 5.0 15.0 0.00 0.00 0.00 48 1018.2
20260509225443 0 96 6.0 13.0 0.00 0.00 0.00 47 1018.4
20260509224920 0 71 7.0 13.0 0.00 0.00 0.00 47 1018.4
20260509224357 0 100 7.0 13.0 0.00 0.00 0.00 41 1018.5
20260509223834 0 89 5.0 13.0 0.00 0.00 0.00 41 1018.6
20260509223311 0 100 6.0 11.0 0.00 0.00 0.00 44 1018.5
20260509222748 0 71 7.0 11.0 0.00 0.00 0.00 39 1018.5
20260509222225 0 110 3.0 10.0 0.00 0.00 0.00 38 1018.7
20260509221702 0 102 5.0 11.0 0.00 0.00 0.00 38 1018.7
20260509221139 0 91 5.0 11.0 0.00 0.00 0.00 38 1018.6
20260509220616 0 92 4.0 11.0 0.00 0.00 0.00 38 1018.7
20260509220053 0 95 3.0 10.0 0.00 0.00 0.00 39 1018.7
20260509215530 0 95 3.0 13.0 0.00 0.00 0.00 39 1018.9
20260509215007 0 96 5.0 13.0 0.00 0.00 0.00 43 1019.0
20260509214444 0 86 5.0 13.0 0.00 0.00 0.00 42 1018.9
20260509213921 0 74 6.0 9.0 0.00 0.00 0.00 45 1019.0
20260509213358 0 105 4.0 10.0 0.00 0.00 0.00 47 1019.3
20260509212835 0 106 4.0 10.0 0.00 0.00 0.00 46 1019.2
20260509212312 0 98 5.0 10.0 0.00 0.00 0.00 45 1019.4
20260509211749 0 105 3.0 9.0 0.00 0.00 0.00 46 1019.5
20260509211226 0 89 3.0 9.0 0.00 0.00 0.00 46 1019.6
20260509210703 0 96 5.0 11.0 0.00 0.00 0.00 48 1019.6
20260509210140 0 114 4.0 11.0 0.00 0.00 0.00 49 1019.7
20260509205617 0 75 5.0 12.0 0.00 0.00 0.00 54 1019.6
20260509205055 0 93 5.0 12.0 0.00 0.00 0.00 55 1019.4
20260509204531 0 107 5.0 12.0 0.00 0.00 0.00 56 1019.5
20260509204008 0 82 6.0 12.0 0.00 0.00 0.00 52 1019.8
20260509203445 0 92 5.0 12.0 0.00 0.00 0.00 50 1019.9
20260509202922 0 92 7.0 11.0 0.00 0.00 0.00 49 1019.8
20260509202359 0 93 6.0 11.0 0.00 0.00 0.00 47 1019.8
20260509201836 0 85 6.0 12.0 0.00 0.00 0.00 45 1019.8
20260509201313 0 86 4.0 12.0 0.00 0.00 0.00 44 1019.7
20260509200750 0 110 5.0 9.0 0.00 0.00 0.00 44 1019.8
20260509200227 0 106 5.0 9.0 0.00 0.00 0.00 43 1019.8
20260509195703 0 77 6.0 10.0 0.00 0.00 0.00 43 1019.9
20260509195140 0 95 4.0 10.0 0.00 0.00 0.00 42 1019.8
20260509194617 0 82 6.0 8.0 0.00 0.00 0.00 41 1020.0
20260509194054 0 81 5.0 9.0 0.00 0.00 0.00 43 1019.9
20260509193531 0 85 4.0 9.0 0.00 0.00 0.00 43 1020.1
20260509193011 0 109 3.0 9.0 0.00 0.00 0.00 42 1020.0
20260509192445 0 113 5.0 8.0 0.00 0.00 0.00 41 1020.2
20260509191922 0 106 3.0 7.0 0.00 0.00 0.00 42 1020.1
20260509191359 0 82 2.0 7.0 0.00 0.00 0.00 43 1020.1
20260509190837 0 88 3.0 7.0 0.00 0.00 0.00 43 1020.3
20260509190314 0 103 1.0 8.0 0.00 0.00 0.00 46 1020.2
20260509185751 0 107 1.0 8.0 0.00 0.00 0.00 46 1020.2
20260509185227 0 78 5.0 7.0 0.00 0.00 0.00 45 1020.6
20260509184705 0 100 1.0 7.0 0.00 0.00 0.00 48 1020.6
20260509184141 0 98 4.0 7.0 0.00 0.00 0.00 47 1020.8
20260509183618 0 109 4.0 6.0 0.00 0.00 0.00 48 1020.9
20260509183055 0 102 1.0 6.0 0.00 0.00 0.00 46 1020.9
20260509182533 0 106 2.0 6.0 0.00 0.00 0.00 45 1020.8
20260509182009 0 134 3.0 5.0 0.00 0.00 0.00 43 1020.8
20260509181447 0 93 0.0 5.0 0.00 0.00 0.00 42 1020.5
20260509180923 0 138 1.0 4.0 0.00 0.00 0.00 44 1020.9
20260509180400 0 242 0.0 2.0 0.00 0.00 0.00 44 1020.8
20260509175837 0 190 0.0 6.0 0.00 0.00 0.00 45 1020.9
20260509175316 0 130 0.0 6.0 0.00 0.00 0.00 46 1020.8
20260509174751 0 113 2.0 4.0 0.00 0.00 0.00 45 1020.8
20260509174228 0 105 0.0 2.0 0.00 0.00 0.00 47 1020.5
20260509173705 0 250 1.0 3.0 0.00 0.00 0.00 48 1021.0
20260509173233 0 107 0.0 3.0 0.00 0.00 0.00 50 1021.1
20260509173142 0 107 0.0 3.0 0.00 0.00 0.00 50 1021.1
20260509172619 0 110 1.0 3.0 0.00 0.00 0.00 49 1020.9
20260509172056 0 127 1.0 2.0 0.00 0.00 0.00 47 1020.8
20260509171533 0 14 1.0 2.0 0.00 0.00 0.00 42 1020.5
20260509171010 0 11 0.0 3.0 0.00 0.00 0.00 44 1021.1
20260509170447 0 0 0.0 3.0 0.00 0.00 0.00 46 1020.6
20260509165924 0 105 0.0 3.0 0.00 0.00 0.00 50 1020.5
20260509165401 0 100 1.0 3.0 0.00 0.00 0.00 49 1020.9
20260509164838 0 347 1.0 3.0 0.00 0.00 0.00 49 1020.8
20260509164315 0 343 0.0 3.0 0.00 0.00 0.00 49 1020.4
20260509163752 0 37 0.0 2.0 0.00 0.00 0.00 52 1020.8
20260509163229 0 40 0.0 3.0 0.00 0.00 0.00 53 1020.9
20260509162706 0 29 0.0 3.0 0.00 0.00 0.00 51 1021.0
20260509162143 0 49 0.0 2.0 0.00 0.00 0.00 50 1020.8
20260509161736 0 43 0.0 2.0 0.00 0.00 0.00 49 1020.8
20260509161620 0 43 0.0 2.0 0.00 0.00 0.00 49 1020.8
20260509161057 0 77 0.0 2.0 0.00 0.00 0.00 44 1020.4
20260509160534 0 0 0.0 0.0 0.00 0.00 0.00 47 1020.6
20260509160011 0 0 0.0 0.0 0.00 0.00 0.00 48 1020.4
20260509155449 0 0 0.0 0.0 0.00 0.00 0.00 49 1020.5
20260509154925 0 0 0.0 0.0 0.00 0.00 0.00 50 1020.6
20260509154402 0 0 0.0 0.0 0.00 0.00 0.00 51 1020.9
20260509153839 0 0 0.0 0.0 0.00 0.00 0.00 53 1021.0
20260509153317 0 0 0.0 0.0 0.00 0.00 0.00 55 1021.1
20260509152753 0 0 0.0 0.0 0.00 0.00 0.00 54 1020.9
20260509152230 0 0 0.0 0.0 0.00 0.00 0.00 55 1021.1
20260509151707 0 0 0.0 0.0 0.00 0.00 0.00 55 1020.6
20260509151144 0 0 0.0 0.0 0.00 0.00 0.00 57 1021.0
20260509150621 0 0 0.0 0.0 0.00 0.00 0.00 59 1021.0
20260509150058 0 0 0.0 0.0 0.00 0.00 0.00 59 1020.8
20260509145535 0 0 0.0 0.0 0.00 0.00 0.00 58 1020.8
20260509145012 0 0 0.0 0.0 0.00 0.00 0.00 59 1020.8
20260509144449 0 0 0.0 0.0 0.00 0.00 0.00 61 1020.8
20260509143926 0 0 0.0 0.0 0.00 0.00 0.00 63 1021.1
20260509143403 0 0 0.0 0.0 0.00 0.00 0.00 64 1021.3
20260509142840 0 0 0.0 0.0 0.00 0.00 0.00 62 1021.4
20260509142317 0 0 0.0 0.0 0.00 0.00 0.00 63 1021.3
20260509141754 0 0 0.0 0.0 0.00 0.00 0.00 63 1021.1
20260509141236 0 0 0.0 0.0 0.00 0.00 0.00 63 1021.1
20260509141232 0 0 0.0 0.0 0.00 0.00 0.00 63 1021.1
20260509140708 0 0 0.0 0.0 0.00 0.00 0.00 63 1021.2
20260509140145 0 0 0.0 0.0 0.00 0.00 0.00 64 1021.2
20260509135622 0 0 0.0 0.0 0.00 0.00 0.00 64 1021.2
20260509135059 0 0 0.0 0.0 0.00 0.00 0.00 65 1021.3
20260509134536 0 0 0.0 0.0 0.00 0.00 0.00 65 1021.1
20260509134013 0 0 0.0 0.0 0.00 0.00 0.00 66 1020.9
20260509133450 0 0 0.0 0.0 0.00 0.00 0.00 67 1021.1
20260509132927 0 0 0.0 0.0 0.00 0.00 0.00 67 1021.1
20260509132404 0 0 0.0 0.0 0.00 0.00 0.00 67 1021.1
20260509131841 0 0 0.0 0.0 0.00 0.00 0.00 67 1021.0
20260509131318 0 0 0.0 0.0 0.00 0.00 0.00 67 1021.1
20260509130755 0 0 0.0 0.0 0.00 0.00 0.00 67 1021.1
20260509130232 0 0 0.0 0.0 0.00 0.00 0.00 67 1021.1
20260509125709 0 0 0.0 0.0 0.00 0.00 0.00 67 1021.0
20260509125146 0 0 0.0 0.0 0.00 0.00 0.00 67 1021.1
20260509124623 0 0 0.0 0.0 0.00 0.00 0.00 68 1021.2
20260509124100 0 0 0.0 0.0 0.00 0.00 0.00 68 1021.3
20260509123536 0 0 0.0 0.0 0.00 0.00 0.00 68 1021.4
20260509123014 0 0 0.0 0.0 0.00 0.00 0.00 68 1021.4
20260509122451 0 0 0.0 0.0 0.00 0.00 0.00 68 1021.5
20260509121927 0 0 0.0 0.0 0.00 0.00 0.00 68 1021.6
20260509121404 0 0 0.0 0.0 0.00 0.00 0.00 68 1021.5
20260509120841 0 0 0.0 0.0 0.00 0.00 0.00 68 1021.6
20260509120320 0 0 0.0 0.0 0.00 0.00 0.00 69 1021.7
20260509115755 0 0 0.0 0.0 0.00 0.00 0.00 68 1021.9
20260509115233 0 0 0.0 0.0 0.00 0.00 0.00 68 1021.9
20260509114709 0 0 0.0 0.0 0.00 0.00 0.00 68 1021.7
20260509114147 0 0 0.0 0.0 0.00 0.00 0.00 69 1021.8
20260509113623 0 0 0.0 0.0 0.00 0.00 0.00 68 1022.0
20260509113100 0 0 0.0 0.0 0.00 0.00 0.00 68 1022.1
20260509112537 0 0 0.0 0.0 0.00 0.00 0.00 67 1021.9
20260509112015 0 0 0.0 0.0 0.00 0.00 0.00 67 1021.9
20260509111451 0 0 0.0 0.0 0.00 0.00 0.00 68 1021.8
20260509110928 0 0 0.0 0.0 0.00 0.00 0.00 67 1021.8
20260509110405 0 0 0.0 0.0 0.00 0.00 0.00 68 1021.8
20260509105842 0 0 0.0 0.0 0.00 0.00 0.00 69 1021.7
20260509105319 0 0 0.0 0.0 0.00 0.00 0.00 70 1021.9
20260509104759 0 0 0.0 0.0 0.00 0.00 0.00 70 1021.8
20260509104233 0 0 0.0 0.0 0.00 0.00 0.00 70 1021.7
20260509103710 0 0 0.0 0.0 0.00 0.00 0.00 70 1021.6
20260509103147 0 0 0.0 0.0 0.00 0.00 0.00 70 1021.6
20260509102624 0 0 0.0 0.0 0.00 0.00 0.00 70 1021.9
20260509102101 0 0 0.0 0.0 0.00 0.00 0.00 71 1021.9
20260509101538 0 0 0.0 0.0 0.00 0.00 0.00 71 1022.0
20260509101016 0 0 0.0 0.0 0.00 0.00 0.00 71 1022.0
20260509100452 0 0 0.0 0.0 0.00 0.00 0.00 71 1022.2
20260509095929 0 0 0.0 0.0 0.00 0.00 0.00 70 1022.1
20260509095406 0 0 0.0 0.0 0.00 0.00 0.00 71 1022.2
20260509094843 0 0 0.0 0.0 0.00 0.00 0.00 71 1022.3
20260509094320 0 0 0.0 0.0 0.00 0.00 0.00 71 1022.2
20260509093757 0 0 0.0 0.0 0.00 0.00 0.00 71 1022.3
20260509093236 0 0 0.0 0.0 0.00 0.00 0.00 71 1022.1
20260509092711 0 0 0.0 0.0 0.00 0.00 0.00 71 1022.2
20260509092148 0 0 0.0 0.0 0.00 0.00 0.00 71 1022.3
20260509091625 0 0 0.0 0.0 0.00 0.00 0.00 71 1022.1
20260509091102 0 0 0.0 0.0 0.00 0.00 0.00 71 1022.1
20260509090539 0 0 0.0 0.0 0.00 0.00 0.00 71 1022.2
20260509090016 0 0 0.0 0.0 0.00 0.00 0.00 72 1022.3
20260509085453 0 0 0.0 0.0 0.00 0.00 0.00 72 1022.3
20260509084930 0 0 0.0 0.0 0.00 0.00 0.00 70 1022.3
20260509084407 0 0 0.0 3.0 0.00 0.00 0.00 70 1022.3
20260509083844 0 0 0.0 3.0 0.00 0.00 0.00 70 1022.4
20260509083321 0 0 0.0 3.0 0.00 0.00 0.00 70 1022.5
20260509082758 0 93 0.0 6.0 0.00 0.00 0.00 71 1022.5
20260509082235 0 107 2.0 6.0 0.00 0.00 0.00 70 1022.4
20260509081715 0 106 2.0 4.0 0.00 0.00 0.00 70 1022.5
20260509081153 0 110 2.0 4.0 0.00 0.00 0.00 71 1022.5
20260509080626 0 0 2.0 2.0 0.00 0.00 0.00 72 1022.5
20260509075540 0 0 0.0 0.0 0.00 0.00 0.00 74 1022.4
20260509075017 0 0 0.0 0.0 0.00 0.00 0.00 74 1022.5
20260509074454 0 0 0.0 0.0 0.00 0.00 0.00 74 1022.5
20260509073931 0 0 0.0 0.0 0.00 0.00 0.00 72 1022.5
20260509073408 0 0 0.0 0.0 0.00 0.00 0.00 74 1022.5
20260509072845 0 0 0.0 3.0 0.00 0.00 0.00 73 1022.6
20260509072324 0 0 0.0 3.0 0.00 0.00 0.00 72 1022.7
20260509071759 0 102 0.0 3.0 0.00 0.00 0.00 71 1022.6
20260509071236 0 113 0.0 5.0 0.00 0.00 0.00 72 1022.7
20260509070713 0 113 0.0 5.0 0.00 0.00 0.00 71 1022.9
20260509070151 0 109 1.0 6.0 0.00 0.00 0.00 71 1022.9
20260509065627 0 99 2.0 6.0 0.00 0.00 0.00 70 1022.9
20260509065104 0 114 2.0 6.0 0.00 0.00 0.00 69 1022.9
20260509064541 0 105 1.0 6.0 0.00 0.00 0.00 70 1023.1
20260509064018 0 110 2.0 6.0 0.00 0.00 0.00 68 1023.1
20260509063455 0 105 3.0 6.0 0.00 0.00 0.00 68 1023.2
20260509062932 0 106 3.0 5.0 0.00 0.00 0.00 67 1023.1
20260509062409 0 100 2.0 4.0 0.00 0.00 0.00 68 1023.2
20260509061846 0 92 0.0 4.0 0.00 0.00 0.00 66 1023.2
20260509061323 0 102 2.0 4.0 0.00 0.00 0.00 66 1023.1
20260509060800 0 96 1.0 4.0 0.00 0.00 0.00 66 1023.1
20260509060237 0 98 2.0 5.0 0.00 0.00 0.00 66 1023.2
20260509055714 0 98 0.0 5.0 0.00 0.00 0.00 68 1023.4
20260509055151 0 100 2.0 4.0 0.00 0.00 0.00 66 1023.4
20260509054628 0 103 2.0 4.0 0.00 0.00 0.00 66 1023.3
20260509054105 0 121 2.0 3.0 0.00 0.00 0.00 66 1023.3
20260509053542 0 117 0.0 2.0 0.00 0.00 0.00 68 1023.4
20260509053019 0 0 0.0 3.0 0.00 0.00 0.00 67 1023.3
20260509052456 0 0 0.0 3.0 0.00 0.00 0.00 67 1023.2
20260509051932 0 99 0.0 3.0 0.00 0.00 0.00 67 1023.2
20260509051410 0 100 2.0 4.0 0.00 0.00 0.00 65 1023.3
20260509050847 0 0 0.0 4.0 0.00 0.00 0.00 66 1023.3
20260509050323 0 102 0.0 4.0 0.00 0.00 0.00 66 1023.3
20260509045800 0 98 1.0 4.0 0.00 0.00 0.00 66 1023.3
20260509045237 0 0 1.0 4.0 0.00 0.00 0.00 65 1023.3
20260509044714 0 102 0.0 4.0 0.00 0.00 0.00 66 1023.3
20260509044153 0 0 2.0 2.0 0.00 0.00 0.00 65 1023.2
20260509043628 0 0 0.0 0.0 0.00 0.00 0.00 66 1023.1
20260509043105 0 0 0.0 6.0 0.00 0.00 0.00 66 1023.2
20260509042543 0 89 0.0 6.0 0.00 0.00 0.00 65 1023.2
20260509042020 0 114 0.0 6.0 0.00 0.00 0.00 67 1023.3
20260509041456 0 103 3.0 6.0 0.00 0.00 0.00 67 1023.3
20260509040933 0 103 4.0 5.0 0.00 0.00 0.00 66 1023.2
20260509040410 0 89 2.0 4.0 0.00 0.00 0.00 63 1023.2
20260509035847 0 102 2.0 4.0 0.00 0.00 0.00 65 1023.1
20260509035324 0 92 2.0 3.0 0.00 0.00 0.00 65 1022.9
20260509034801 0 0 0.0 0.0 0.00 0.00 0.00 65 1023.1
20260509034238 0 89 0.0 4.0 0.00 0.00 0.00 63 1023.1
20260509033716 0 98 0.0 4.0 0.00 0.00 0.00 63 1023.0
20260509033152 0 116 2.0 4.0 0.00 0.00 0.00 63 1023.0
20260509032629 0 98 0.0 4.0 0.00 0.00 0.00 62 1023.0
20260509032106 0 0 0.0 5.0 0.00 0.00 0.00 64 1023.2
20260509031543 0 0 0.0 5.0 0.00 0.00 0.00 65 1023.2
20260509031021 0 112 0.0 5.0 0.00 0.00 0.00 64 1023.1
20260509030457 0 102 3.0 7.0 0.00 0.00 0.00 62 1023.1
20260509025934 0 96 2.0 7.0 0.00 0.00 0.00 60 1023.0
20260509025411 0 91 3.0 7.0 0.00 0.00 0.00 59 1023.0
20260509024848 0 112 3.0 8.0 0.00 0.00 0.00 60 1023.0
20260509024326 0 91 3.0 8.0 0.00 0.00 0.00 59 1023.0
20260509023802 0 112 4.0 8.0 0.00 0.00 0.00 62 1023.2
20260509023239 0 85 2.0 6.0 0.00 0.00 0.00 61 1023.1
20260509022716 0 89 3.0 7.0 0.00 0.00 0.00 61 1023.2
20260509022154 0 102 3.0 7.0 0.00 0.00 0.00 60 1023.3
20260509021631 0 102 4.0 7.0 0.00 0.00 0.00 57 1023.3
20260509021107 0 117 4.0 7.0 0.00 0.00 0.00 56 1023.4